This demonstration page uses our WeatherBlox Daily Observations layout. Learn more.

Left ArrowRight Arrow

39.51506, -84.39828

Hourly Observations for June 5, 2020

Temp ( °F °C ) Dew Point ( °F °C ) Humidity (%) Winds ( mph kmh ) Pressure ( in mb ) Visibility ( mi km ) Precip ( " mm )
12:15 am 00:15 Mostly Cloudy 72 22.2 70 21.2 94 94 SSW 5 7 29.84 1010 10 16.0934 0 0
12:35 am 00:35 Clear 71 21.7 70 21.1 96 96 Calm 29.84 1011 10 16.0934 0 0
12:55 am 00:55 Clear 71 21.6 70 21 96 96 Calm 29.85 1011 10 16.0934 0 0
1:15 am 01:15 Mostly Cloudy 71 21.5 70 21.1 98 98 Calm 29.84 1011 7 11.26538 0 0
1:35 am 01:35 Clear with Mist and Fog 70 21.2 70 21 99 99 Calm 29.84 1011 5 8.0467 0 0
1:55 am 01:55 Clear with Mist and Fog 69 20.7 69 20.6 99 99 Calm 29.84 1011 4 6.43736 0 0
2:15 am 02:15 Partly Cloudy with Mist and Fog 70 21 70 21 100 100 Calm 29.84 1011 5 8.0467 0 0
2:35 am 02:35 Mostly Cloudy with Mist and Fog 71 21.4 70 21.1 98 98 Calm 29.84 1011 7 11.26538 0 0
2:55 am 02:55 Partly Cloudy with Mist and Fog 69 20.7 69 20.6 99 99 Calm 29.85 1011 4 6.43736 0 0
3:15 am 03:15 Mostly Cloudy with Mist and Fog 68 20 68 20 100 100 Calm 29.84 1011 2 3.21868 0 0
3:35 am 03:35 Clear with Mist and Fog 68 20 N/A N/A Calm 29.84 1011 2.5 4.02335 0 0
3:55 am 03:55 Clear with Mist and Fog 68 20 N/A N/A WSW 3 6 29.85 1011 3.5 5.63269 0 0
4:15 am 04:15 Clear with Mist and Fog 68 20 N/A N/A SW 3 6 29.85 1011 3 4.82802 0 0
4:35 am 04:35 Cloudy with Mist and Fog 70 21 N/A N/A SW 5 7 29.85 1011 3 4.82802 0 0
4:55 am 04:55 Cloudy with Mist and Fog 70 21 N/A N/A WSW 5 7 29.85 1011 2.5 4.02335 0 0
5:15 am 05:15 Cloudy with Mist and Fog 70 21 N/A N/A W 3 6 29.85 1011 1.75 2.816345 0 0
5:35 am 05:35 Cloudy with Mist and Fog 70 21 N/A N/A WSW 5 7 29.86 1011 1.75 2.816345 0 0
5:55 am 05:55 Cloudy with Mist and Fog 70 21 N/A N/A WSW 3 6 29.86 1011 1.75 2.816345 0 0
6:15 am 06:15 Cloudy with Mist and Fog 70 21 N/A N/A Calm 29.86 1011 1.25 2.011675 0 0
6:35 am 06:35 Partly Cloudy with Mist and Fog 68 20 N/A N/A Calm 29.87 1012 1.25 2.011675 0 0
6:55 am 06:55 Mostly Cloudy with Mist and Fog 68 20 N/A N/A WNW 3 6 29.87 1012 1.25 2.011675 0 0
7:15 am 07:15 Sunny with Mist and Fog 70 21 N/A N/A NW 3 6 29.87 1012 2 3.21868 0 0
7:35 am 07:35 Sunny with Mist and Fog 70 21 70 20.9 99 99 Calm 29.86 1011 3 4.82802 0 0
7:55 am 07:55 Cloudy with Mist and Fog 70 21.2 70 20.9 98 98 NNW 3 6 29.87 1012 2.5 4.02335 0 0
8:15 am 08:15 Cloudy with Mist and Fog 71 21.6 70 21.2 98 98 NNW 3 6 29.88 1012 2.5 4.02335 0 0
8:35 am 08:35 Partly Cloudy with Mist and Fog 73 22.5 71 21.5 94 94 NE 3 6 29.89 1012 5 8.0467 0 0
8:55 am 08:55 Sunny 74 23.2 70 21.3 89 89 ENE 3 6 29.89 1012 7 11.26538 0 0
9:15 am 09:15 Sunny 75 24.1 71 21.7 87 87 Calm 29.89 1012 10 16.0934 0 0
9:35 am 09:35 Sunny 77 24.9 71 21.6 82 82 NNW 5 7 29.9 1013 10 16.0934 0 0
9:55 am 09:55 Sunny 77 25.2 70 21.3 79 79 N 7 11 29.9 1013 10 16.0934 0 0
10:15 am 10:15 Sunny 79 25.9 70 21.3 76 76 NNE 3 6 29.9 1013 10 16.0934 0 0
10:35 am 10:35 Sunny 80 26.7 71 21.7 74 74 N 6 9 29.9 1013 10 16.0934 0 0
10:55 am 10:55 Sunny 79 26.2 69 20.4 70 70 N 3 6 29.9 1013 10 16.0934 0 0
11:15 am 11:15 Partly Cloudy 81 27.2 68 20.1 65 65 Calm 29.88 1012 7 11.26538 0 0
11:35 am 11:35 Sunny 81 27.4 69 20.5 66 66 E 5 7 29.87 1011 10 16.0934 0 0
11:55 am 11:55 Partly Cloudy 82 27.5 69 20.4 65 65 WNW 3 6 29.89 1012 10 16.0934 0 0
12:15 pm 12:15 Sunny 83 28.4 69 20.6 63 63 Calm 29.89 1012 10 16.0934 0 0
12:35 pm 12:35 Mostly Cloudy 82 27.9 68 20.2 63 63 Calm 29.89 1012 10 16.0934 0 0
12:55 pm 12:55 Partly Cloudy 83 28.4 67 19.7 59 59 Calm 29.89 1012 10 16.0934 0 0
1:15 pm 13:15 Partly Cloudy 83 28.1 69 20.3 63 63 WSW 5 7 29.89 1012 10 16.0934 0 0
1:35 pm 13:35 Partly Cloudy 83 28.5 68 19.8 59 59 Calm 29.88 1012 10 16.0934 0 0
1:55 pm 13:55 Cloudy 84 28.9 67 19.7 58 58 ENE 3 6 29.87 1012 10 16.0934 0 0
2:15 pm 14:15 Mostly Cloudy 85 29.3 68 19.9 57 57 Calm 29.86 1011 10 16.0934 0 0
2:35 pm 14:35 Mostly Cloudy 84 29.1 67 19.3 56 56 Calm 29.85 1011 10 16.0934 0 0
2:55 pm 14:55 Sunny 86 29.8 68 20.2 56 56 Calm 29.85 1011 10 16.0934 0 0
3:15 pm 15:15 Sunny 84 29.1 66 19 54 54 Calm 29.85 1011 10 16.0934 0 0
3:35 pm 15:35 Sunny 87 30.4 68 20.1 54 54 W 8 13 29.85 1011 10 16.0934 0 0
3:55 pm 15:55 Sunny 87 30.3 68 19.9 54 54 SW 6 9 29.84 1011 10 16.0934 0 0
4:15 pm 16:15 Partly Cloudy 87 30.4 69 20.5 55 55 W 10 17 29.85 1011 10 16.0934 0 0
4:35 pm 16:35 Sunny 87 30.4 69 20.7 56 56 WSW 8 13 29.84 1011 10 16.0934 0 0
4:55 pm 16:55 Sunny 87 30.4 69 20.3 55 55 WNW 5 7 29.84 1011 10 16.0934 0 0
5:15 pm 17:15 Sunny 87 30.4 67 19.7 53 53 WSW 8 13 29.84 1011 10 16.0934 0 0
5:35 pm 17:35 Sunny 87 30.5 66 18.9 50 50 W 9 15 29.84 1011 10 16.0934 0 0
5:55 pm 17:55 Sunny 87 30.5 67 19.6 52 52 W 10 17 29.84 1011 10 16.0934 0 0
6:15 pm 18:15 Sunny 85 29.2 65 18.5 53 53 W 9 15 29.83 1010 10 16.0934 0 0
6:35 pm 18:35 Sunny 86 30.2 66 19 51 51 W 7 11 29.83 1010 10 16.0934 0 0
6:55 pm 18:55 Sunny 86 29.9 66 18.7 51 51 W 5 7 29.83 1010 10 16.0934 0 0
7:15 pm 19:15 Sunny 85 29.5 67 19.2 54 54 W 6 9 29.83 1010 10 16.0934 0 0
7:35 pm 19:35 Sunny 85 29.3 66 19 54 54 W 7 11 29.84 1011 10 16.0934 0 0
7:55 pm 19:55 Sunny 83 28.5 66 18.7 55 55 W 8 13 29.85 1011 10 16.0934 0 0
8:15 pm 20:15 Sunny 82 27.6 66 18.8 59 59 W 5 7 29.87 1011 10 16.0934 0 0
8:35 pm 20:35 Sunny 79 26.3 68 20 68 68 WSW 3 6 29.87 1012 10 16.0934 0 0
8:55 pm 20:55 Sunny 76 24.2 69 20.6 80 80 W 3 6 29.88 1012 10 16.0934 0 0
9:15 pm 21:15 Clear 74 23.1 70 20.9 87 87 W 3 6 29.89 1012 10 16.0934 0 0
9:35 pm 21:35 Clear 73 22.6 68 20.2 86 86 Calm 29.89 1012 10 16.0934 0 0
9:55 pm 21:55 Clear 71 21.8 68 20.1 90 90 Calm 29.9 1013 10 16.0934 0 0
10:15 pm 22:15 Clear 72 22.2 68 20.1 88 88 Calm 29.91 1013 10 16.0934 0 0
10:35 pm 22:35 Clear 72 22.1 67 19.6 86 86 Calm 29.92 1013 10 16.0934 0 0
10:55 pm 22:55 Clear 70 21.3 69 20.3 94 94 Calm 29.92 1013 10 16.0934 0 0
11:15 pm 23:15 Clear 69 20.8 68 20 95 95 Calm 29.92 1013 10 16.0934 0 0
11:35 pm 23:35 Clear 70 20.9 68 20 95 95 Calm 29.92 1013 10 16.0934 0 0
11:55 pm 23:55 Clear 69 20.8 68 19.9 95 95 Calm 29.92 1013 10 16.0934 0 0

Powered by AerisWeather